Home   Weather   Cedar Rapids   Past weeks
Flag for USA

Past Weather in Cedar Rapids, Iowa, USA — Yesterday and Last 2 Weeks

Now
65 °F

Overcast.


Feels Like: 65 °F
Forecast: 72 / 62 °F
Wind: 7 mph from North

Location: Cedar Rapids Municipal Airport

Current Time: Jun 16, 2019 at 2:21:31 pm

Latest Report: Jun 16, 2019 at 12:52 pm


Visibility: 10 mi

Pressure: 29.86 "Hg

Humidity: 87%

Dew Point: 61 °F

Location of Cedar RapidsLocation

Past Weather in Cedar Rapids — Graph

°F

Cedar Rapids Temperature Yesterday

Maximum temperature yesterday: 79 °F (at 4:52 pm)
Minimum temperature yesterday: 63 °F (at 2:52 am)
Average temperature yesterday: 68 °F

High & Low Weather Summary for the Past Weeks

 TemperatureHumidityPressure
High85 °F (Jun 5, 3:52 pm)100% (Jun 5, 4:52 am)30.23 "Hg (Jun 5, 4:52 am)
Low49 °F (Jun 13, 5:52 am)23% (Jun 10, 5:52 pm)29.64 "Hg (Jun 15, 5:52 pm)
Average68 °F69%29.90 "Hg
* Reported Jun 1 12:52 pm — Jun 16 12:52 pm, Cedar Rapids. Weather by CustomWeather, © 2019

Note: Actual official high and low records may vary slightly from our data, if they occured in-between our weather recording intervals... More about our weather records

Advertising

Cedar Rapids Weather History for the Previous 24 Hours

Scroll right to see more
 ConditionsComfort  
Time TempWeatherWind HumidityBarometerVisibility
12:52 pm
Sun, Jun 16
65 °FOvercast.7 mph87%29.86 "Hg10 mi
11:52 am65 °FOvercast.9 mph85%29.86 "Hg10 mi
11:23 am63 °FOvercast.8 mph90%29.88 "Hg10 mi
10:52 am63 °FLow clouds.6 mph90%29.86 "Hg10 mi
9:52 am62 °FLow clouds.6 mph90%29.87 "Hg10 mi
8:52 am62 °FMostly cloudy.5 mph90%29.85 "Hg10 mi
8:39 am61 °FMostly cloudy.No wind97%29.84 "Hg7 mi
8:10 am61 °FFog.8 mph97%29.82 "Hg3 mi
7:52 am61 °FFog.9 mph97%29.80 "Hg4 mi
7:38 am60 °FFog.10 mph100%29.81 "Hg3 mi
7:04 am60 °FFog.7 mph100%29.82 "Hg2 mi
6:52 am60 °FFog.5 mph100%29.80 "Hg2 mi
6:36 am61 °FFog.8 mph100%29.82 "Hg2 mi
5:52 am61 °FFog.6 mph100%29.78 "Hg6 mi
5:42 am61 °FFog.6 mph100%29.79 "Hg6 mi
4:52 am62 °FFog.12 mph100%29.72 "Hg4 mi
4:22 am63 °FFog.10 mph100%29.72 "Hg6 mi
4:08 am63 °FFog.12 mph100%29.72 "Hg3 mi
3:52 am62 °FFog.10 mph100%29.70 "Hg1 mi
3:23 am62 °FFog.7 mph100%29.73 "Hg1 mi
2:52 am62 °FFog.9 mph100%29.72 "Hg1 mi
2:41 am62 °FFog.12 mph100%29.74 "Hg2 mi
2:14 am62 °FLow clouds.7 mph100%29.75 "Hg9 mi
1:59 am62 °FPassing clouds.6 mph100%29.76 "Hg10 mi
12:52 am62 °FClear.7 mph100%29.70 "Hg10 mi
11:52 pm
Sat, Jun 15
63 °FClear.5 mph100%29.71 "Hg10 mi
10:59 pm65 °FClear.8 mph97%29.71 "Hg10 mi
9:52 pm66 °FLow clouds.10 mph100%29.67 "Hg10 mi
9:25 pm65 °FPassing clouds.5 mph100%29.68 "Hg10 mi
9:03 pm65 °FLight rain. Mostly cloudy.3 mph100%29.68 "Hg8 mi
8:52 pm65 °FThundershowers. Fog.No wind100%29.68 "Hg5 mi
8:07 pm66 °FRain. Fog.8 mph96%29.69 "Hg4 mi
7:52 pm64 °FThundershowers. Fog.9 mph100%29.69 "Hg6 mi
6:52 pm76 °FThundershowers. Partly sunny.5 mph77%29.66 "Hg10 mi
5:52 pm79 °FScattered clouds.7 mph67%29.64 "Hg10 mi
4:52 pm79 °FBroken clouds.9 mph69%29.65 "Hg10 mi
4:15 pm76 °FPartly sunny.12 mph77%29.68 "Hg10 mi
2:52 pm73 °FPassing clouds.9 mph81%29.69 "Hg9 mi
2:06 pm74 °FMore clouds than sun.15 mph76%29.71 "Hg10 mi
Weather by CustomWeather, © 2019

See weather overview